WB8ZTP Weather Reports


Display with metric or nautical units.
time (UTC)temp
F
wind
direction
speed
MPH
gust
MPH
rain 1hr
in
rain 24hr
in
rain mn
in
humidity
%
barometer
mb
20260503223015 57 215 6.0 13.0 0.00 0.00 0.00 46 1016.9
20260503221514 58 192 4.0 12.0 0.00 0.00 0.00 43 1016.9
20260503220013 58 248 5.0 15.0 0.00 0.00 0.00 43 1017.1
20260503214512 58 240 7.0 16.0 0.00 0.00 0.00 43 1017.1
20260503213011 58 197 6.0 14.0 0.00 0.00 0.00 44 1017.4
20260503211510 58 219 6.0 16.0 0.00 0.00 0.00 44 1017.3
20260503210008 59 227 7.0 17.0 0.00 0.00 0.00 43 1017.5
20260503204507 58 190 4.0 14.0 0.00 0.00 0.00 44 1017.6
20260503203018 58 212 5.0 19.0 0.00 0.00 0.00 42 1017.6
20260503201504 58 250 8.0 19.0 0.00 0.00 0.00 41 1017.9
20260503200002 59 245 4.0 13.0 0.00 0.00 0.00 45 1017.9
20260503194559 58 238 4.0 15.0 0.00 0.00 0.00 44 1018.2
20260503193058 58 211 7.0 14.0 0.00 0.00 0.00 44 1018.6
20260503191557 58 230 4.0 12.0 0.00 0.00 0.00 47 1018.8
20260503190108 58 215 6.0 12.0 0.00 0.00 0.00 45 1019.1
20260503184552 58 232 6.0 16.0 0.00 0.00 0.00 46 1019.3
20260503183049 57 191 5.0 15.0 0.00 0.00 0.00 48 1019.3
20260503181554 56 188 4.0 15.0 0.00 0.00 0.00 47 1019.7
20260503180052 56 192 6.0 13.0 0.00 0.00 0.00 48 1020.0
20260503174542 57 218 5.0 12.0 0.00 0.00 0.00 49 1020.0
20260503173040 56 173 4.0 16.0 0.00 0.00 0.00 49 1020.3
20260503171539 55 286 2.0 12.0 0.00 0.00 0.00 55 1020.5
20260503081525 32 360 0.0 0.0 0.00 0.00 0.00 91 1020.5
20260503071510 32 360 0.0 0.0 0.00 0.00 0.00 91 1020.5
20260503054502 33 360 0.0 0.0 0.00 0.00 0.00 91 1020.8
20260503053005 33 360 0.0 0.0 0.00 0.00 0.00 91 1020.8
20260503051601 33 360 0.0 0.0 0.00 0.00 0.00 91 1020.8
20260503050100 33 360 0.0 0.0 0.00 0.00 0.00 91 1020.7
20260503044559 33 360 0.0 0.0 0.00 0.00 0.00 91 1020.7
20260503043056 34 360 0.0 0.0 0.00 0.00 0.00 90 1020.6
20260503041555 34 360 0.0 0.0 0.00 0.00 0.00 90 1020.7
20260503040052 35 360 0.0 0.0 0.00 0.00 0.00 90 1020.7
20260503034552 35 360 0.0 0.0 0.00 0.00 0.00 90 1020.8
20260503033058 36 360 0.0 0.0 0.00 0.00 0.00 89 1020.8
20260503031551 36 360 0.0 0.0 0.00 0.00 0.00 88 1020.9
20260503030051 37 360 0.0 0.0 0.00 0.00 0.00 88 1021.0
20260503024550 38 360 0.0 0.0 0.00 0.00 0.00 87 1020.9
20260503023053 39 360 0.0 0.0 0.00 0.00 0.00 86 1021.0
20260503021548 40 360 0.0 0.0 0.00 0.00 0.00 84 1020.9
20260503020047 40 360 0.0 0.0 0.00 0.00 0.00 83 1020.9
20260503014545 41 360 0.0 0.0 0.00 0.00 0.00 82 1020.7
20260503013046 41 360 0.0 0.0 0.00 0.00 0.00 81 1020.6
20260503011544 41 360 0.0 0.0 0.00 0.00 0.00 78 1020.5
20260503010044 42 360 0.0 0.0 0.00 0.00 0.00 75 1020.5
20260503004543 42 360 0.0 2.0 0.00 0.00 0.00 72 1020.5
20260503003042 42 5 0.0 0.0 0.00 0.00 0.00 73 1020.4
20260503001542 43 5 0.0 4.0 0.00 0.00 0.00 70 1020.3
20260503000041 43 340 0.0 4.0 0.00 0.00 0.00 68 1020.1
20260502234550 43 334 1.0 4.0 0.00 0.00 0.00 67 1020.1
20260502233041 43 15 1.0 4.0 0.00 0.00 0.00 67 1020.0
20260502231543 44 17 1.0 5.0 0.00 0.00 0.00 67 1020.0
20260502230040 44 355 1.0 5.0 0.00 0.00 0.00 65 1020.0
20260502224539 44 5 4.0 8.0 0.00 0.00 0.00 64 1020.0